DW9330 Weather Reports


Display with metric or nautical units.
time (UTC)temp
F
wind
direction
speed
MPH
gust
MPH
rain 1hr
in
rain 24hr
in
rain mn
in
humidity
%
barometer
mb
20260504190533 73 203 3.0 15.0 0.00 0.00 0.00 40 1010.4
20260504190032 72 187 4.0 12.0 0.00 0.00 0.00 41 1010.4
20260504185527 72 205 3.0 12.0 0.00 0.00 0.00 40 1010.5
20260504185028 72 276 3.0 12.0 0.00 0.00 0.00 43 1010.5
20260504184526 72 232 2.0 8.0 0.00 0.00 0.00 42 1010.7
20260504184025 72 231 3.0 12.0 0.00 0.00 0.00 39 1010.9
20260504183524 72 242 3.0 12.0 0.00 0.00 0.00 41 1011.0
20260504183023 71 225 4.0 7.0 0.00 0.00 0.00 43 1011.0
20260504182523 72 207 1.0 8.0 0.00 0.00 0.00 38 1011.0
20260504182024 72 198 2.0 8.0 0.00 0.00 0.00 42 1011.1
20260504181522 71 196 4.0 15.0 0.00 0.00 0.00 42 1011.1
20260504181022 71 211 2.0 15.0 0.00 0.00 0.00 43 1011.1
20260504180521 71 191 3.0 6.0 0.00 0.00 0.00 40 1011.1
20260504180020 70 250 2.0 7.0 0.00 0.00 0.00 39 1011.3
20260504175524 71 229 3.0 7.0 0.00 0.00 0.00 42 1011.3
20260504175024 71 233 2.0 7.0 0.00 0.00 0.00 38 1011.3
20260504174522 71 221 2.0 12.0 0.00 0.00 0.00 38 1011.3
20260504174019 71 177 1.0 10.0 0.00 0.00 0.00 43 1011.3
20260504173519 71 202 2.0 8.0 0.00 0.00 0.00 40 1011.4
20260504173018 71 205 2.0 8.0 0.00 0.00 0.00 40 1011.5
20260504172517 71 261 2.0 8.0 0.00 0.00 0.00 45 1011.6
20260504172021 70 280 2.0 8.0 0.00 0.00 0.00 43 1011.7
20260504171516 70 254 1.0 9.0 0.00 0.00 0.00 42 1011.7
20260504171015 69 174 4.0 7.0 0.00 0.00 0.00 40 1011.9
20260504170514 69 211 3.0 10.0 0.00 0.00 0.00 44 1011.9
20260504151059 66 225 3.0 8.0 0.00 0.00 0.00 44 1013.3
20260504150558 66 202 3.0 9.0 0.00 0.00 0.00 43 1013.3
20260504141050 64 223 2.0 8.0 0.00 0.00 0.00 45 1013.6
20260504140549 63 194 4.0 11.0 0.00 0.00 0.00 43 1013.7
20260504130539 59 360 2.0 7.0 0.00 0.00 0.00 48 1013.9
20260504110509 47 360 0.0 3.0 0.00 0.00 0.00 61 1014.2
20260504100605 44 360 0.0 3.0 0.00 0.00 0.00 64 1014.3
20260504100106 44 360 0.0 3.0 0.00 0.00 0.00 65 1014.4
20260504081535 46 257 0.0 2.0 0.00 0.00 0.00 60 1014.8
20260504081035 46 257 0.0 3.0 0.00 0.00 0.00 59 1014.8
20260504080535 46 257 0.0 3.0 0.00 0.00 0.00 59 1014.8
20260504050523 46 227 0.0 3.0 0.00 0.00 0.00 61 1015.1
20260504050022 46 221 0.0 2.0 0.00 0.00 0.00 62 1015.1
20260504045521 46 360 1.0 3.0 0.00 0.00 0.00 63 1015.2
20260504045023 45 222 0.0 2.0 0.00 0.00 0.00 63 1015.1
20260504044532 45 360 0.0 3.0 0.00 0.00 0.00 64 1015.1
20260504044021 45 360 0.0 3.0 0.00 0.00 0.00 65 1015.1
20260504043520 45 360 0.0 1.0 0.00 0.00 0.00 64 1015.1
20260504043029 46 360 0.0 0.0 0.00 0.00 0.00 64 1015.1
20260504042519 46 223 0.0 1.0 0.00 0.00 0.00 63 1015.1
20260504042021 46 224 0.0 1.0 0.00 0.00 0.00 63 1015.1
20260504041518 46 224 0.0 1.0 0.00 0.00 0.00 62 1015.2
20260504041017 46 224 0.0 1.0 0.00 0.00 0.00 63 1015.1
20260504040517 46 224 0.0 0.0 0.00 0.00 0.00 64 1015.0
20260504040019 46 223 0.0 0.0 0.00 0.00 0.00 62 1015.0
20260504035515 47 224 0.0 1.0 0.00 0.00 0.00 62 1014.9
20260504035015 47 224 0.0 4.0 0.00 0.00 0.00 61 1014.9
20260504034515 47 224 0.0 4.0 0.00 0.00 0.00 61 1014.9
20260504034014 47 228 0.0 1.0 0.00 0.00 0.00 62 1014.9
20260504033514 47 228 0.0 1.0 0.00 0.00 0.00 61 1014.9
20260504033015 47 229 0.0 3.0 0.00 0.00 0.00 60 1014.9
20260504032514 47 229 0.0 3.0 0.00 0.00 0.00 60 1014.9
20260504032015 47 230 0.0 3.0 0.00 0.00 0.00 59 1014.9
20260504031517 47 245 0.0 1.0 0.00 0.00 0.00 60 1014.8
20260504031013 48 245 0.0 1.0 0.00 0.00 0.00 61 1014.7
20260504030513 48 245 0.0 1.0 0.00 0.00 0.00 60 1014.7
20260504030014 48 245 0.0 2.0 0.00 0.00 0.00 60 1014.7
20260504025515 47 246 0.0 2.0 0.00 0.00 0.00 60 1014.7
20260504025014 47 245 0.0 2.0 0.00 0.00 0.00 60 1014.7
20260504024512 47 246 0.0 2.0 0.00 0.00 0.00 61 1014.8
20260504024013 47 245 0.0 0.0 0.00 0.00 0.00 61 1014.7
20260504023513 47 360 0.0 1.0 0.00 0.00 0.00 61 1014.6
20260504023013 47 245 0.0 1.0 0.00 0.00 0.00 60 1014.6
20260504022514 48 246 0.0 0.0 0.00 0.00 0.00 59 1014.6
20260504022013 48 246 0.0 2.0 0.00 0.00 0.00 58 1014.5
20260504021514 48 246 0.0 2.0 0.00 0.00 0.00 58 1014.6
20260504021012 48 246 0.0 2.0 0.00 0.00 0.00 58 1014.6
20260504020512 48 246 0.0 2.0 0.00 0.00 0.00 59 1014.6
20260504020012 48 246 0.0 0.0 0.00 0.00 0.00 58 1014.7
20260504015511 48 246 0.0 1.0 0.00 0.00 0.00 58 1014.6
20260504015011 48 246 0.0 1.0 0.00 0.00 0.00 57 1014.6
20260504014511 48 246 0.0 1.0 0.00 0.00 0.00 57 1014.6
20260504014012 48 246 0.0 2.0 0.00 0.00 0.00 57 1014.6
20260504013513 48 360 0.0 1.0 0.00 0.00 0.00 56 1014.5
20260504013017 48 360 0.0 1.0 0.00 0.00 0.00 56 1014.5
20260504012511 48 360 0.0 0.0 0.00 0.00 0.00 56 1014.4
20260504012010 49 245 0.0 0.0 0.00 0.00 0.00 55 1014.4
20260504011510 49 244 0.0 0.0 0.00 0.00 0.00 55 1014.3
20260504011012 49 243 0.0 0.0 0.00 0.00 0.00 54 1014.2
20260504010510 50 243 0.0 0.0 0.00 0.00 0.00 55 1014.2
20260504010009 50 244 0.0 0.0 0.00 0.00 0.00 53 1014.3
20260504005509 50 243 0.0 0.0 0.00 0.00 0.00 52 1014.2
20260504005009 50 243 0.0 0.0 0.00 0.00 0.00 52 1014.2
20260504004516 51 360 0.0 0.0 0.00 0.00 0.00 52 1014.2
20260504004009 51 360 0.0 0.0 0.00 0.00 0.00 51 1014.2
20260504003508 52 244 0.0 0.0 0.00 0.00 0.00 50 1014.1
20260504003008 52 244 0.0 0.0 0.00 0.00 0.00 49 1014.0
20260504002509 53 244 0.0 0.0 0.00 0.00 0.00 48 1014.0
20260504002009 53 243 0.0 0.0 0.00 0.00 0.00 47 1013.9
20260504001509 54 241 0.0 0.0 0.00 0.00 0.00 45 1013.9
20260504001009 54 240 0.0 1.0 0.00 0.00 0.00 45 1013.8
20260504000508 55 242 0.0 1.0 0.00 0.00 0.00 43 1013.7
20260504000008 55 242 0.0 1.0 0.00 0.00 0.00 44 1013.7
20260503235507 56 242 0.0 1.0 0.00 0.00 0.00 41 1013.7
20260503235007 56 242 0.0 1.0 0.00 0.00 0.00 40 1013.6
20260503234513 56 240 0.0 1.0 0.00 0.00 0.00 40 1013.5
20260503234007 57 241 0.0 2.0 0.00 0.00 0.00 39 1013.5
20260503233508 57 240 0.0 3.0 0.00 0.00 0.00 40 1013.4
20260503233008 57 246 0.0 3.0 0.00 0.00 0.00 39 1013.3
20260503232507 57 248 0.0 3.0 0.00 0.00 0.00 36 1013.3
20260503232007 58 249 1.0 3.0 0.00 0.00 0.00 36 1013.3
20260503231507 58 248 1.0 3.0 0.00 0.00 0.00 37 1013.3
20260503231007 58 244 0.0 3.0 0.00 0.00 0.00 38 1013.3
20260503230507 58 245 0.0 3.0 0.00 0.00 0.00 38 1013.3
20260503230006 58 248 0.0 3.0 0.00 0.00 0.00 37 1013.3
20260503225506 59 237 0.0 3.0 0.00 0.00 0.00 36 1013.3
20260503225007 59 238 0.0 2.0 0.00 0.00 0.00 35 1013.4
20260503224506 59 238 0.0 3.0 0.00 0.00 0.00 36 1013.4
20260503224006 59 238 0.0 5.0 0.00 0.00 0.00 35 1013.3
20260503223506 59 234 1.0 5.0 0.00 0.00 0.00 36 1013.4
20260503223005 59 273 1.0 4.0 0.00 0.00 0.00 36 1013.3
20260503222505 59 225 1.0 6.0 0.00 0.00 0.00 35 1013.3
20260503222005 59 275 1.0 6.0 0.00 0.00 0.00 36 1013.3
20260503221506 59 231 1.0 6.0 0.00 0.00 0.00 36 1013.4
20260503221005 59 270 2.0 6.0 0.00 0.00 0.00 35 1013.3
20260503220509 59 232 1.0 5.0 0.00 0.00 0.00 36 1013.3
20260503220004 60 211 0.0 3.0 0.00 0.00 0.00 34 1013.4
20260503215504 59 208 1.0 3.0 0.00 0.00 0.00 36 1013.4
20260503215003 59 207 0.0 7.0 0.00 0.00 0.00 36 1013.5
20260503214515 60 241 2.0 7.0 0.00 0.00 0.00 35 1013.5
20260503214006 60 244 1.0 7.0 0.00 0.00 0.00 37 1013.4
20260503213503 60 182 2.0 7.0 0.00 0.00 0.00 35 1013.3
20260503213005 60 257 1.0 6.0 0.00 0.00 0.00 34 1013.4
20260503212506 60 307 1.0 6.0 0.00 0.00 0.00 34 1013.4
20260503212004 60 232 0.0 4.0 0.00 0.00 0.00 35 1013.3
20260503211504 60 268 2.0 9.0 0.00 0.00 0.00 34 1013.3
20260503211003 60 254 3.0 9.0 0.00 0.00 0.00 35 1013.3
20260503210503 60 360 1.0 6.0 0.00 0.00 0.00 36 1013.3
20260503210002 59 360 1.0 7.0 0.00 0.00 0.00 38 1013.3
20260503205504 59 360 1.0 5.0 0.00 0.00 0.00 38 1013.4
20260503205002 60 360 1.0 6.0 0.00 0.00 0.00 36 1013.4
20260503204502 60 272 1.0 6.0 0.00 0.00 0.00 39 1013.4
20260503204002 60 317 1.0 4.0 0.00 0.00 0.00 39 1013.3
20260503203502 60 56 1.0 6.0 0.00 0.00 0.00 37 1013.3
20260503203004 60 360 1.0 7.0 0.00 0.00 0.00 34 1013.4
20260503202502 60 13 2.0 8.0 0.00 0.00 0.00 34 1013.4
20260503202002 60 102 1.0 8.0 0.00 0.00 0.00 36 1013.5
20260503201502 60 46 1.0 8.0 0.00 0.00 0.00 36 1013.5
20260503201004 60 130 2.0 9.0 0.00 0.00 0.00 35 1013.4
20260503200502 60 33 2.0 8.0 0.00 0.00 0.00 36 1013.5
20260503200001 59 277 2.0 13.0 0.00 0.00 0.00 34 1013.7
20260503195500 59 30 4.0 13.0 0.00 0.00 0.00 33 1013.7
20260503195101 60 360 1.0 5.0 0.00 0.00 0.00 33 1013.8
20260503194605 61 280 2.0 7.0 0.00 0.00 0.00 33 1013.9
20260503194100 61 24 2.0 7.0 0.00 0.00 0.00 35 1013.9
20260503193600 61 283 2.0 5.0 0.00 0.00 0.00 38 1014.1
20260503193105 61 180 1.0 5.0 0.00 0.00 0.00 35 1014.2
20260503192558 61 360 1.0 6.0 0.00 0.00 0.00 38 1014.1
20260503192058 60 360 0.0 7.0 0.00 0.00 0.00 33 1014.2
20260503191606 60 360 2.0 10.0 0.00 0.00 0.00 38 1014.3
20260503191057 59 360 1.0 10.0 0.00 0.00 0.00 39 1014.3